Regional Weather Roundup
Issued by NWS

Home | Current Version | Previous Version | Text Only | Print | Product List | Glossary Off
Versions: 1 2 3 4 5 6 7 8 9 10 11 12 13 14 15 16 17 18 19 20 21 22 23 24 25 26 27 28 29 30 31 32 33 34 35 36 37 38 39 40 41 42 43 44 45 46 47 48 49 50

000
ASUS44 KMEG 160610
RWRTN
TENNESSEE HOURLY STATE WEATHER ROUNDUP
NATIONAL WEATHER SERVICE MEMPHIS TN
100 AM CDT MON OCT 16 2017

TNZ002-004-019-021-049-052-054-088>092-160700-
WEST TENNESSEE

CITY           SKY/WX    TMP DP  RH WIND       PRES   REMARKS
MEMPHIS INTL   CLEAR     54  47  77 N8        30.27F
NWS MEMPHIS      N/A     55 N/A N/A MISG        N/A
JACKSON        CLEAR     52  48  86 NE9       30.28S
DYERSBURG      CLEAR     52  46  80 N8        30.31R
UNION CITY     CLEAR     48  45  87 N6        30.30R
PARIS          CLEAR     48  45  87 N5        30.27S
HUNTINGDON     CLEAR     50  46  87 CALM      30.27S
$$

TNZ008-025-027-028-033-062-065-066-160700-
NORTH MIDDLE TENNESSEE

CITY           SKY/WX    TMP DP  RH WIND       PRES   REMARKS
NASHVILLE      CLOUDY    53  45  74 N12       30.25F
CLARKSVILLE    PTCLDY    48  44  86 NW7       30.28R
SMYRNA         CLOUDY    54  45  71 N9        30.25S
CROSSVILLE     CLOUDY    49  44  83 N12G20    30.20R
$$

TNZ061-075-076-078-094-096-097-160700-
SOUTH MIDDLE TENNESSEE

CITY           SKY/WX    TMP DP  RH WIND       PRES   REMARKS
TULLAHOMA      CLOUDY    50  45  81 N12       30.22R
WINCHESTER     CLOUDY    52  48  87 N5          N/A
MCMINNVILLE    CLOUDY    52  48  87 N12       30.22R
COLUMBIA       PTCLDY    50  48  93 N3        30.23S
SHELBYVILLE    CLOUDY    54  48  82 N9        30.22S
$$

TNZ017-018-042-046-047-160700-
NORTHEAST TENNESSEE

CITY           SKY/WX    TMP DP  RH WIND       PRES   REMARKS
TRI CITIES     RAIN      60  60 100 N7        30.10R FOG
ELIZABETHTON   MOCLDY    63  57  82 CALM      30.09R FOG
$$

TNZ012-013-036-069-073-074-160700-
CENTRAL EAST TENNESSEE

CITY           SKY/WX    TMP DP  RH WIND       PRES   REMARKS
KNOXVILLE      RAIN      59  59 100 N9        30.13R
OAK RIDGE      PTCLDY    58  53  84 VRB3      30.17R
GATLINBURG     CLOUDY    61  59  94 NW3       30.13R FOG
MORRISTOWN     CLOUDY    59  57  94 N7        30.13R
JACKSBORO      CLOUDY    54  48  82 N10G17    30.22R
$$

TNZ083-085-099-160700-
SOUTHEAST TENNESSEE

CITY           SKY/WX    TMP DP  RH WIND       PRES   REMARKS
CHATTANOOGA    LGT RAIN  60  56  86 N10       30.15R
DAYTON         MOCLDY    59  55  88 N9        30.16S
$$

SKY/WX REPORTED AS FAIR MEANS FEW OR NO CLOUDS BELOW
12 THOUSAND FEET.





USA.gov is the U.S. government's official web portal to all federal, state and local government web resources and services.